This demonstration page uses our WeatherBlox Daily Observations layout. Learn more.

39.51506, -84.39828

Hourly Observations for October 20, 2019

Temp ( °F °C ) Dew Point ( °F °C ) Humidity (%) Winds ( mph kmh ) Pressure ( in mb ) Visibility ( mi km ) Precip ( " mm )
12:15 am 00:15 Clear 52 11 47 8.6 85 85 Calm 29.85 1011 10 16.0934 0 0
12:35 am 00:35 Clear 52 11.1 47 8.5 84 84 Calm 29.84 1010 10 16.0934 0 0
12:55 am 00:55 Clear 52 10.9 48 8.9 88 88 Calm 29.84 1010 10 16.0934 0 0
1:15 am 01:15 Partly Cloudy 51 10.7 48 8.9 89 89 Calm 29.84 1010 10 16.0934 0 0
1:35 am 01:35 Clear 51 10.7 47 8.6 87 87 Calm 29.83 1010 10 16.0934 0 0
1:55 am 01:55 Clear 51 10.5 47 8.5 88 88 Calm 29.83 1010 10 16.0934 0 0
2:15 am 02:15 Clear 51 10.5 47 8.5 88 88 Calm 29.83 1010 10 16.0934 0 0
2:35 am 02:35 Clear 50 10.1 47 8.5 90 90 Calm 29.83 1010 10 16.0934 0 0
2:55 am 02:55 Clear 49 9.6 47 8.5 93 93 Calm 29.83 1010 10 16.0934 0 0
3:15 am 03:15 Partly Cloudy 48 9.1 47 8.2 94 94 Calm 29.82 1010 10 16.0934 0 0
3:35 am 03:35 Clear 47 8.2 46 7.5 95 95 Calm 29.82 1010 10 16.0934 0 0
3:55 am 03:55 Clear 47 8.2 46 7.6 96 96 Calm 29.82 1010 10 16.0934 0 0
4:15 am 04:15 Clear 46 7.9 45 7.4 97 97 Calm 29.82 1010 10 16.0934 0 0
4:35 am 04:35 Clear 46 7.8 45 7.4 97 97 Calm 29.82 1010 10 16.0934 0 0
4:55 am 04:55 Clear 46 7.8 45 7.1 95 95 Calm 29.82 1010 10 16.0934 0 0
5:15 am 05:15 Clear 45 7.4 44 6.9 97 97 Calm 29.84 1010 10 16.0934 0 0
5:35 am 05:35 Clear 45 7.1 44 6.7 97 97 Calm 29.85 1011 10 16.0934 0 0
5:55 am 05:55 Mostly Cloudy 45 7.2 44 6.9 98 98 Calm 29.87 1011 10 16.0934 0 0
6:15 am 06:15 Mostly Cloudy 46 7.7 45 7.3 97 97 Calm 29.86 1011 10 16.0934 0 0
6:35 am 06:35 Partly Cloudy 46 7.8 45 7.3 97 97 Calm 29.87 1012 10 16.0934 0 0
6:55 am 06:55 Mostly Cloudy 46 7.7 45 7 95 95 Calm 29.87 1012 10 16.0934 0 0
7:15 am 07:15 Cloudy 47 8.4 46 7.8 96 96 Calm 29.87 1012 10 16.0934 0 0
7:35 am 07:35 Cloudy 48 8.9 47 8.2 95 95 Calm 29.88 1012 10 16.0934 0 0
7:55 am 07:55 Cloudy 49 9.2 47 8.3 94 94 Calm 29.88 1012 10 16.0934 0 0
8:15 am 08:15 Cloudy 49 9.5 48 8.7 95 95 Calm 29.88 1012 10 16.0934 0 0
8:35 am 08:35 Partly Cloudy 49 9.4 47 8.3 93 93 Calm 29.88 1012 10 16.0934 0 0
8:55 am 08:55 Sunny 51 10.8 48 9 89 89 Calm 29.9 1012 10 16.0934 0 0
9:15 am 09:15 Sunny 53 11.8 49 9.4 85 85 Calm 29.89 1012 10 16.0934 0 0
9:35 am 09:35 Sunny 55 13 50 9.8 81 81 Calm 29.9 1013 10 16.0934 0 0
9:55 am 09:55 Sunny 58 14.6 50 10.2 75 75 S 3 6 29.9 1012 10 16.0934 0 0
10:15 am 10:15 Sunny 60 15.6 51 10.5 72 72 SSW 3 6 29.9 1012 10 16.0934 0 0
10:35 am 10:35 Sunny 62 16.5 52 11.1 71 71 SSE 3 6 29.89 1012 10 16.0934 0 0
10:55 am 10:55 Sunny 63 17.1 52 11.3 69 69 Calm 29.9 1013 10 16.0934 0 0
11:15 am 11:15 Sunny 64 17.8 53 11.6 67 67 Calm 29.9 1013 10 16.0934 0 0
11:35 am 11:35 Sunny 66 18.7 53 11.5 63 63 SW 5 7 29.9 1012 10 16.0934 0 0
11:55 am 11:55 Cloudy 67 19.4 53 11.6 61 61 W 3 6 29.9 1012 10 16.0934 0 0
12:15 pm 12:15 Partly Cloudy 68 20 51 10.4 54 54 Calm 29.9 1013 10 16.0934 0 0
12:35 pm 12:35 Sunny 70 21.1 52 11 53 53 SE 3 6 29.89 1012 10 16.0934 0 0
12:55 pm 12:55 Sunny 71 21.7 52 10.9 50 50 E 3 6 29.89 1012 7 11.26538 0 0
1:15 pm 13:15 Sunny 71 21.8 51 10.6 49 49 Calm 29.89 1012 10 16.0934 0 0
1:35 pm 13:35 Sunny 72 22.2 52 10.9 49 49 S 5 7 29.88 1012 10 16.0934 0 0
1:55 pm 13:55 Sunny 73 22.5 52 10.9 48 48 E 3 6 29.88 1012 10 16.0934 0 0
2:15 pm 14:15 Sunny 73 23 52 11.2 47 47 SE 3 6 29.87 1011 7 11.26538 0 0
2:35 pm 14:35 Sunny 74 23.1 52 11.1 47 47 Calm 29.87 1011 10 16.0934 0 0
2:55 pm 14:55 Sunny 74 23.2 51 10.8 46 46 Calm 29.86 1011 10 16.0934 0 0
3:15 pm 15:15 Sunny 74 23.6 52 11 45 45 SSE 5 7 29.86 1011 10 16.0934 0 0
3:35 pm 15:35 Sunny 74 23.5 52 11 45 45 SW 7 11 29.86 1011 10 16.0934 0 0
3:55 pm 15:55 Sunny 74 23.1 51 10.8 46 46 Calm 29.87 1011 10 16.0934 0 0
4:15 pm 16:15 Sunny 73 22.8 50 10.1 45 45 S 5 7 29.87 1011 10 16.0934 0 0
4:35 pm 16:35 Cloudy 74 23.1 51 10.5 45 45 SW 5 7 29.87 1011 10 16.0934 0 0
4:55 pm 16:55 Sunny 73 22.9 50 10.1 44 44 SW 5 7 29.87 1011 10 16.0934 0 0
5:15 pm 17:15 Sunny 74 23.3 50 9.8 42 42 WSW 7 11 29.87 1011 10 16.0934 0 0
5:35 pm 17:35 Sunny 74 23.2 50 10 43 43 SW 5 7 29.87 1011 10 16.0934 0 0
5:55 pm 17:55 Sunny 73 22.7 50 10.2 45 45 WSW 6 9 29.87 1011 10 16.0934 0 0
6:15 pm 18:15 Sunny 71 21.7 51 10.7 50 50 WSW 6 9 29.87 1012 10 16.0934 0 0
6:35 pm 18:35 Sunny 66 19 52 11.1 60 60 WSW 5 7 29.88 1012 10 16.0934 0 0
6:55 pm 18:55 Clear 64 17.9 52 11.2 65 65 Calm 29.89 1012 10 16.0934 0 0
7:15 pm 19:15 Clear 61 16.3 53 11.7 74 74 ENE 3 6 29.89 1012 10 16.0934 0 0
7:35 pm 19:35 Clear 60 15.5 53 11.4 77 77 Calm 29.91 1013 10 16.0934 0 0
7:55 pm 19:55 Partly Cloudy 59 14.9 53 11.4 80 80 Calm 29.92 1013 10 16.0934 0 0
8:15 pm 20:15 Clear 58 14.5 53 11.6 83 83 Calm 29.93 1013 10 16.0934 0 0
8:35 pm 20:35 Clear 56 13.5 51 10.7 83 83 Calm 29.93 1014 10 16.0934 0 0
8:55 pm 20:55 Clear 56 13.5 53 11.4 87 87 Calm 29.94 1014 10 16.0934 0 0
9:15 pm 21:15 Clear 55 12.7 52 10.9 89 89 Calm 29.95 1014 10 16.0934 0 0
9:35 pm 21:35 Clear 55 12.5 51 10.7 89 89 Calm 29.95 1014 10 16.0934 0 0
9:55 pm 21:55 Clear 53 11.9 51 10.8 93 93 Calm 29.96 1015 10 16.0934 0 0
10:15 pm 22:15 Cloudy 54 12.1 51 10.6 91 91 Calm 29.96 1015 10 16.0934 0 0
10:35 pm 22:35 Partly Cloudy 53 11.9 51 10.6 92 92 Calm 29.96 1015 10 16.0934 0 0
10:55 pm 22:55 Clear 54 12.1 52 11.1 94 94 Calm 29.97 1015 10 16.0934 0 0
11:15 pm 23:15 Clear 53 11.4 51 10.5 94 94 Calm 29.98 1015 10 16.0934 0 0
11:35 pm 23:35 Clear 53 11.7 51 10.8 94 94 Calm 29.97 1015 10 16.0934 0 0
11:55 pm 23:55 Clear 53 11.4 51 10.7 96 96 Calm 29.97 1015 10 16.0934 0 0

Powered by AerisWeather